San Antonio Stinson, TX

6:33 PM CDT on May 25, 2018 (GMT -0500)
Stinson Municipal

Weather History for KSSF - October, 2010

Change the Weather History Date:

Monday, October 4, 2010

  Actual Average Record
Temperature  
Mean Temperature 67 °F -  
Max Temperature 79 °F 82 °F 93 °F (1998)
Min Temperature 57 °F 62 °F 57 °F (2010)
Cooling Degree Days 2    
Growing Degree Days 17 (Base 50)    
Moisture  
Dew Point 43 °F    
Average Humidity 44    
Maximum Humidity 70    
Minimum Humidity 25    
Precipitation  
Precipitation 0.00 in - - ()
Sea Level Pressure  
Sea Level Pressure 30.23 in    
Wind  
Wind Speed 6 mph (ENE)    
Max Wind Speed 12 mph    
Max Gust Speed 16 mph    
Visibility 10 miles    
Events      
Averages and records for this station are not official NWS values.
T = Trace of Precipitation, MM = Missing Value Source: NWS Daily Summary

Daily Weather History Graph

Daily Weather History Graph

Search for Another Location

Airport or City:

Astronomy

Oct. 04, 2010 Rise Set
Actual Time 7:28 AM CDT 7:15 PM CDT
Civil Twilight 7:05 AM CDT 7:39 PM CDT
Nautical Twilight 6:37 AM CDT 8:07 PM CDT
Astronomical Twilight 6:09 AM CDT 8:34 PM CDT
Moon 3:55 AM CDT (10/4) 5:02 PM CDT (10/4)
Length of Visible Light 12h 34m
Length of Day
11h 47m
Waning Crescent, 14% of the Moon is Illuminated
Oct 4
Waning Crescent
Oct 7
New
Oct 14
First Quarter
Oct 22
Full
Oct 30
Last Quarter

Hourly Weather History & Observations

Time (CDT) Temp. Dew Point Humidity Pressure Visibility Wind Dir Wind Speed Gust Speed Precip Events Conditions
12:53 AM 64.0 °F 44.1 °F 48% 30.21 in 10.0 mi ENE 6.9 mph - N/A   Clear
1:53 AM 63.0 °F 44.1 °F 50% 30.22 in 10.0 mi Variable 4.6 mph - N/A   Clear
2:53 AM 62.1 °F 43.0 °F 50% 30.22 in 10.0 mi NE 6.9 mph - N/A   Clear
3:53 AM 61.0 °F 42.1 °F 50% 30.21 in 10.0 mi NE 9.2 mph - N/A   Clear
4:53 AM 61.0 °F 42.1 °F 50% 30.20 in 10.0 mi NE 8.1 mph - N/A   Clear
5:53 AM 60.1 °F 42.1 °F 51% 30.22 in 10.0 mi NNE 4.6 mph - N/A   Clear
6:53 AM 59.0 °F 42.1 °F 53% 30.24 in 10.0 mi NNE 5.8 mph - N/A   Clear
7:53 AM 57.9 °F 42.1 °F 56% 30.25 in 10.0 mi NNE 4.6 mph - N/A   Clear
8:53 AM 62.1 °F 41.0 °F 46% 30.27 in 10.0 mi NE 8.1 mph - N/A   Clear
9:53 AM 66.0 °F 42.1 °F 42% 30.30 in 10.0 mi ENE 9.2 mph - N/A   Clear
10:53 AM 69.1 °F 43.0 °F 39% 30.30 in 10.0 mi ENE 9.2 mph - N/A   Clear
11:53 AM 71.1 °F 41.0 °F 34% 30.29 in 10.0 mi East 9.2 mph - N/A   Clear
12:53 PM 73.9 °F 39.9 °F 29% 30.27 in 10.0 mi Variable 5.8 mph - N/A   Clear
1:53 PM 77.0 °F 43.0 °F 30% 30.23 in 10.0 mi NE 11.5 mph 16.1 mph N/A   Clear
2:53 PM 77.0 °F 41.0 °F 28% 30.20 in 10.0 mi East 6.9 mph - N/A   Clear
3:53 PM 77.0 °F 39.0 °F 25% 30.19 in 10.0 mi ENE 5.8 mph 16.1 mph N/A   Clear
4:53 PM 77.0 °F 39.9 °F 26% 30.17 in 10.0 mi East 3.5 mph - N/A   Clear
5:53 PM 75.9 °F 39.9 °F 27% 30.17 in 10.0 mi East 9.2 mph - N/A   Clear
6:53 PM 73.0 °F 41.0 °F 31% 30.19 in 10.0 mi East 6.9 mph - N/A   Clear
7:53 PM 69.1 °F 43.0 °F 39% 30.19 in 10.0 mi East 4.6 mph - N/A   Clear
8:53 PM 64.9 °F 46.9 °F 52% 30.22 in 10.0 mi East 3.5 mph - N/A   Clear
9:53 PM 62.1 °F 48.0 °F 60% 30.23 in 10.0 mi Calm Calm - N/A   Clear
10:53 PM 59.0 °F 48.9 °F 69% 30.24 in 10.0 mi Calm Calm - N/A   Clear
11:53 PM 57.9 °F 48.0 °F 70% 30.24 in 10.0 mi Calm Calm - N/A   Clear